AirNav   Air Wisconsin pilot careers
 
 415 users online  

6K4 Fairview Municipal Airport
Fairview, Oklahoma, USA

GOING TO FAIRVIEW?


FAA INFORMATION EFFECTIVE 11 OCTOBER 2018

Location

FAA Identifier: 6K4
Lat/Long: 36-17-28.3000N / 098-28-32.9000W
36-17.471667N / 098-28.548333W
36.2911944 / -98.4758056
(estimated)
Elevation: 1273.8 ft. / 388.3 m (surveyed)
Variation: 07E (1990)
From city: 1 mile N of FAIRVIEW, OK
Time zone: UTC -5 (UTC -6 during Standard Time)
Zip code: 73737

Airport Operations

Airport use: Open to the public
Activation date: 03/1948
Control tower: no
ARTCC: KANSAS CITY CENTER
FSS: MC ALESTER FLIGHT SERVICE STATION
NOTAMs facility: MLC (NOTAM-D service available)
Attendance: MON-SAT DAYLIGHT HOURS
Wind indicator: lighted
Segmented circle: yes
Lights: SS-SR
Beacon: white-green (lighted land airport)
Operates sunset to sunrise.

Airport Communications

CTAF/UNICOM: 122.8
VANCE APPROACH: 126.75 [1300-0200Z++WKD, 1900-2300Z++ SUN ; CLSD SAT & FEDERAL HOL. OTHER TIMES BY NOTAM.]
VANCE DEPARTURE: 126.75 [1300-0200Z++WKD, 1900-2300Z++ SUN ; CLSD SAT & FEDERAL HOL. OTHER TIMES BY NOTAM.]
  • APCH/DEP SERVICE PROVIDED BY KANSAS CITY ARTCC ON FREQS 127.8/319.1 (PONCA CITY RCAG) WHEN VANCE APCH CTL CLSD.

Nearby radio navigation aids

VOR radial/distance  VOR name  Freq  Var
ENDr258/27.1VANCE VORTAC115.4005E
ODGr254/33.6WOODRING VOR/DME109.0008E
IFIr313/37.1KINGFISHER VORTAC114.7009E

Airport Services

Fuel available: 100LL JET-A
Parking: hangars and tiedowns
Airframe service: MINOR
Powerplant service: MINOR
Bottled oxygen: NONE
Bulk oxygen: NONE

Runway Information

Runway 17/35

Dimensions: 4400 x 75 ft. / 1341 x 23 m
Surface: asphalt/concrete, in good condition
Weight bearing capacity: 
Single wheel: 30.0
Runway edge lights: medium intensity
RUNWAY 17  RUNWAY 35
Latitude: 36-17.834607N36-17.109563N
Longitude: 098-28.541372W098-28.556932W
Elevation: 1264.7 ft.1272.5 ft.
Gradient: 0.2%0.2%
Traffic pattern: leftleft
Runway heading: 173 magnetic, 180 true353 magnetic, 360 true
Markings: nonprecision, in fair conditionnonprecision, in good condition
Touchdown point: yes, no lightsyes, no lights
Obstructions: none47 ft. trees, 1050 ft. from runway, 250 ft. left of centerline, 18:1 slope to clear

Airport Ownership and Management from official FAA records

Ownership: Publicly-owned
Owner: CITY OF FAIRVIEW
CITY HALL 203 E. CENTRAL
FAIRVIEW, OK 73737
Phone 580-227-4416
Manager: JUNIOR REGIER
224 E. OKLAHOMA AVENUE
FAIRVIEW, OK 73737
Phone 580-227-3788
OR 580-227-2760.

Airport Operational Statistics

Aircraft based on the field: 20
Single engine airplanes: 19
Multi engine airplanes: 1
    
Aircraft operations: avg 103/week *
56% local general aviation
44% transient general aviation
* for 12-month period ending 11 December 2015

Instrument Procedures

NOTE: All procedures below are presented as PDF files. If you need a reader for these files, you should download the free Adobe Reader.

NOT FOR NAVIGATION. Please procure official charts for flight.
FAA instrument procedures published for use from 11 October 2018 at 0901Z to 8 November 2018 at 0900Z.

 
IAPs - Instrument Approach Procedures
RNAV (GPS) RWY 17 **CHANGED**   download (181KB)
NOTE: Special Alternate Minimums apply **NEW**   download (56KB)
NOTE: Special Take-Off Minimums/Departure Procedures apply **CHANGED**   download (297KB)

Other nearby airports with instrument procedures:

KJWG - Watonga Regional Airport (26 nm S)
KEND - Vance Air Force Base (27 nm E)
KAVK - Alva Regional Airport (30 nm N)
KWDG - Enid Woodring Regional Airport (34 nm E)
1O4 - Thomas Municipal Airport (36 nm S)
 
Loc | Ops | Rwys | IFR | FBO | Links
Com | Nav | Svcs | Stats | Notes


 
Area around 6K4 (Fairview Municipal Airport)
 
Road maps at: MapQuest Bing Google
 
Aerial photo
WARNING: Photo may not be current or correct
Aerial photo of 6K4 (Fairview Municipal Airport)
Photo by Jr. Regier, Regier Flying Service, LLC
Photo taken 31-Oct-2014
looking north.

Do you have a better or more recent aerial photo of Fairview Municipal Airport that you would like to share? If so, please send us your photo.

 
Sectional chart

 
Airport distance calculator
Flying to Fairview Municipal Airport? Find the distance to fly.

From to 6K4

Sunrise and sunset
Times for 15-Oct-2018
 Local
(UTC-5)
 Zulu
(UTC)
Morning civil twilight07:1612:16
Sunrise07:4212:42
Sunset18:5723:57
Evening civil twilight19:2300:23

Current date and time
Zulu (UTC)  15-Oct-2018 09:41:08
Local (UTC-5)  15-Oct-2018 04:41:08
 
METAR
KJWG 
26nm S 
150915Z AUTO 34015G25KT 10SM SCT015 SCT020 01/01 A3033 RMK AO2 T00120010
KEND 
27nm E 
150911Z AUTO 35017G20KT 10SM BKN015 01/00 A3033 RMK AO2 CIG 014 RWY35C SLP282 VISNO RWY35C $
KAVK 
30nm N 
150915Z AUTO 36012G18KT 10SM FEW033 FEW042 01/M02 A3038 RMK AO2
KWDG 
35nm E 
150915Z AUTO 36016G23KT 10SM BKN041 01/00 A3033 RMK AO2
KOJA 
46nm S 
150915Z AUTO 36012G23KT 10SM 01/00 A3033 RMK AO2
TAF
KEND 
27nm E 
142332Z 1423/1524 35015G25KT 9999 BKN008 510004 QNH3010INS BECMG 1510/1511 36012G20KT 9999 SCT015 510013 QNH3028INS BECMG 1516/1517 01012KT 9999 FEW040 QNH3033INS TX13/1521Z TN02/1509Z LAST NO AMDS AFT 1423 NEXT 1510
NOTAMs
Click for the latest NOTAMs
NOTAMs are issued by the DoD/FAA and will open in a separate window not controlled by AirNav.

 

 
 

FBO, Fuel Providers, and Aircraft Ground Support

  
 Business Name 
 
 Contact 
 
 Services / Description 
 
Fuel Prices
 
Comments
  
Regier Flying Service 580-227-3788
no information available

If you are affiliated with Regier Flying Service and would like to show here your services, contact info, web link, logo, and more, click here
100LL Jet A
FS $4.79 $3.65 
 Updated 05-Jun-2018
 
   write
FS=Full service
Update Fuel Prices
 

Would you like to see your business listed on this page?

 If your business provides an interesting product or service to pilots, flight crews, aircraft, or users of the Fairview Municipal Airport, you should consider listing it here.  To start the listing process, click on the button below
 
Add a business
 

Other Pages about Fairview Municipal Airport

Update a link
 
Copyright © AirNav, LLC. All rights reserved. Privacy Policy  Contact